Wetbulb
47.90 47.99 47.78 47.68 47.50 47.06 46.42 46.83 46.44 47.20 47.14 47.04 47.46 47.59 47.29 47.37 47.22 44.76 43.03 43.61 42.33 41.01 41.93 43.14 44.50 43.53 44.01 45.19 44.02 46.03 46.33 48.88 49.64 46.20 46.51 46.25 44.99 47.69 47.51 49.20 47.58 47.88 46.71 45.92 47.63 46.24 44.47 57.31 58.67 54.52 58.31 61.63 60.25 59.38
48.14 47.67 47.79 47.84 47.67 47.13 46.32 46.53 46.07 46.87 47.80 47.06 46.82 47.00 47.20 47.13 47.01 44.49 41.65 43.86 43.42 40.45 41.24 43.06 45.35 46.66 46.23 46.76 46.72 45.13 46.63 47.08 50.76 47.51 47.77 47.96 47.64 49.00 47.94 46.49 53.15 47.54 50.52 48.85 49.81 49.13 56.07 58.43 59.01 59.61 59.95 59.95 58.75 57.76
47.35 47.75 47.52 47.82 48.07 47.12 46.40 46.35 46.27 46.91 47.00 46.74 46.35 46.89 46.80 46.85 47.18 46.49 43.44 43.18 42.66 40.41 41.14 41.02 43.60 47.01 46.92 46.61 49.30 42.78 47.11 50.12 50.72 52.73 50.02 49.25 45.53 48.08 47.92 49.56 50.48 53.00 55.17 54.53 53.28 55.48 56.71 58.19 59.82 60.44 60.26 60.29 60.66 59.50
47.05 47.13 47.37 47.44 47.37 47.07 46.67 46.38 46.22 46.76 47.42 46.68 46.56 46.81 47.32 46.77 46.80 47.16 43.68 43.61 42.45 40.29 37.04 42.96 47.26 46.26 48.14 47.88 47.05 46.89 48.20 52.02 52.49 52.94 50.12 48.71 46.14 48.21 48.40 48.16 48.96 53.06 54.47 52.85 53.99 56.32 57.33 58.99 60.02 60.77 60.32 60.47 59.96 59.69
46.98 46.96 47.21 47.65 47.47 47.20 47.14 46.51 46.04 46.15 47.07 46.56 46.65 47.26 47.31 47.31 47.18 46.55 46.19 45.46 44.94 41.69 37.55 40.34 45.39 47.12 47.88 47.40 46.78 46.65 45.25 45.98 48.93 47.85 48.58 47.19 49.86 48.62 50.29 48.55 48.55 53.31 53.00 53.03 53.40 56.43 57.63 57.45 60.15 61.29 59.90 60.30 60.32 59.24
47.14 46.92 47.18 47.57 47.36 47.03 47.08 46.33 45.94 45.87 46.56 46.84 46.96 47.19 47.24 47.07 46.99 45.25 43.65 45.43 45.56 44.08 40.32 38.26 45.34 45.08 47.48 47.81 46.29 45.40 45.33 45.38 47.32 48.15 48.39 50.46 50.78 50.44 46.89 46.80 49.36 53.23 53.59 55.13 55.19 57.67 58.89 60.53 61.25 61.85 61.25 61.21 60.51 60.15
47.32 47.11 47.42 47.37 46.86 46.60 46.43 46.19 45.90 45.83 46.14 46.72 46.95 46.95 46.95 46.98 45.81 43.26 43.18 46.46 46.14 46.55 41.86 38.80 41.38 47.27 47.42 47.42 46.81 45.99 46.58 47.69 47.60 47.48 47.05 48.55 50.62 51.03 48.34 45.40 50.37 52.13 52.87 53.71 57.07 58.61 57.40 59.04 58.86 61.29 61.07 60.25 58.87 59.59
47.10 47.12 47.46 47.37 46.90 46.36 45.95 45.86 45.90 46.04 46.39 46.83 46.75 47.16 47.75 47.75 47.18 45.49 48.37 47.98 47.83 44.54 43.85 38.10 40.80 45.21 49.84 49.31 47.94 48.54 45.80 46.76 47.63 48.14 49.01 47.94 49.18 49.91 43.63 48.51 50.97 52.60 53.31 54.31 54.89 57.74 58.43 58.58 59.46 60.04 60.30 59.35 58.54 58.14
47.58 47.15 47.27 47.61 46.91 46.36 45.79 45.58 45.97 46.15 46.40 46.32 46.35 48.00 47.59 46.40 45.58 45.96 49.44 49.88 48.02 45.00 40.45 38.95 39.35 41.57 48.14 47.77 49.16 50.23 49.08 43.94 47.93 45.47 46.52 47.68 45.47 42.60 46.54 49.25 50.73 51.76 51.61 52.43 53.48 56.35 57.86 57.81 57.94 59.52 59.43 58.21 58.39 57.50
47.45 47.40 47.52 47.42 47.07 46.44 45.76 45.63 46.01 46.18 46.01 44.63 45.51 44.61 44.40 46.23 47.22 49.28 47.14 43.63 43.51 45.01 42.85 39.29 42.11 41.56 45.52 47.53 46.61 46.45 47.54 47.03 43.50 46.12 47.65 44.81 43.74 48.76 49.80 50.45 51.44 51.94 51.93 53.52 52.57 53.87 55.62 56.45 57.70 58.69 59.44 59.87 59.38 58.09
47.52 47.42 47.51 47.31 47.19 46.37 45.45 45.34 45.85 45.44 42.66 41.69 40.36 42.63 43.48 45.53 47.34 44.39 41.11 40.40 41.48 38.26 42.54 42.97 42.17 41.74 47.77 45.07 45.33 46.44 45.40 46.47 41.45 44.57 43.59 42.79 43.08 47.37 49.88 50.74 51.69 52.32 52.67 52.41 53.96 54.98 55.32 54.54 54.84 58.13 59.32 59.33 59.21 58.64
47.96 47.72 47.33 47.12 47.40 46.21 44.93 45.07 45.32 43.06 42.16 41.72 41.49 43.45 43.23 44.13 42.01 38.83 38.33 41.11 40.02 39.37 44.61 43.96 46.39 44.99 47.55 48.04 46.40 46.43 43.90 44.78 39.35 47.70 43.61 40.23 46.11 48.62 49.40 49.49 50.65 51.67 52.44 52.68 54.74 54.84 55.73 55.73 55.28 57.10 60.03 60.19 60.19 59.70
48.11 47.62 47.16 47.09 46.76 45.73 44.80 44.78 44.96 45.09 43.18 43.55 41.12 40.03 41.04 39.65 34.52 34.51 34.27 38.07 39.41 44.80 46.74 46.80 43.98 47.17 48.25 48.40 46.11 45.23 40.98 41.08 47.41 42.83 41.49 45.20 47.78 48.81 48.36 49.48 50.40 51.87 52.40 53.27 53.98 55.57 55.89 56.16 56.17 57.39 59.08 60.39 60.39 59.03
48.06 47.70 47.21 47.28 46.43 45.56 44.85 44.70 44.72 44.60 42.20 39.90 37.76 31.98 36.30 34.12 36.61 38.29 40.84 41.25 44.56 45.42 44.96 43.73 44.97 45.24 46.87 45.95 46.46 41.11 44.93 44.98 39.89 37.97 39.27 44.60 47.05 47.60 48.27 49.86 50.30 51.12 52.00 52.55 53.64 54.92 55.48 56.27 55.66 57.76 58.86 60.03 59.75 58.57
47.80 47.53 47.23 46.77 46.22 45.63 44.87 44.73 44.68 44.15 41.04 38.62 39.18 32.29 35.78 40.29 40.31 40.83 42.85 42.17 44.58 46.50 45.69 45.40 45.08 46.04 45.66 43.20 45.27 43.70 40.48 37.85 36.40 36.09 41.54 46.89 47.12 48.51 49.27 49.83 50.21 50.27 52.11 51.99 52.60 54.51 54.66 55.42 57.48 57.45 59.07 59.13 58.14 57.76
47.52 46.87 45.56 46.38 46.36 45.75 45.23 43.98 43.04 42.69 41.01 39.45 38.46 37.03 40.07 38.53 38.55 41.30 42.19 43.31 47.48 46.56 45.60 46.57 42.84 40.41 39.79 41.19 39.34 39.14 38.30 35.72 38.62 42.86 46.65 46.79 46.30 46.71 47.24 48.52 50.07 51.74 51.93 51.39 53.00 55.09 55.69 55.60 55.46 55.46 56.54 57.18 56.69 56.66
45.05 42.56 45.67 46.40 46.24 45.77 45.17 42.26 41.97 38.61 38.82 38.11 38.48 40.77 39.31 39.46 39.62 41.77 45.77 45.30 47.41 46.28 42.44 43.08 37.74 37.67 43.11 38.69 38.41 43.09 39.44 41.38 44.49 45.14 46.18 45.50 45.81 46.94 48.60 49.86 51.02 51.35 52.35 52.68 52.39 52.54 52.65 53.80 54.17 53.46 52.33 53.96 55.13 56.32
42.12 43.83 45.74 46.31 45.22 43.34 42.78 41.84 39.44 39.23 36.91 39.10 36.17 38.72 43.28 44.84 44.37 45.46 46.54 47.12 46.18 45.12 44.44 41.66 44.21 39.57 37.99 36.00 39.60 43.47 43.42 44.44 46.31 46.59 46.21 48.07 49.37 50.22 50.97 49.93 50.98 51.80 51.96 52.02 52.67 53.26 53.81 52.67 51.27 51.52 52.59 53.75 54.05 53.92
43.56 46.28 46.80 45.20 43.75 42.79 40.48 40.38 40.76 36.31 38.21 39.52 41.96 42.11 43.91 44.73 45.59 46.25 46.77 48.10 47.27 47.64 45.20 42.79 40.12 38.76 40.25 44.00 43.85 44.88 45.39 45.57 45.59 45.77 47.19 49.46 50.19 49.76 49.99 50.29 50.51 50.85 51.92 52.54 52.84 52.48 52.76 53.45 53.16 53.24 53.15 52.77 51.91 52.30
46.34 45.81 45.40 44.93 43.76 41.41 38.55 38.89 41.95 37.84 37.74 40.03 43.14 42.22 43.39 43.91 44.35 45.53 45.42 45.52 44.04 45.34 42.55 40.74 41.43 44.31 44.41 44.93 45.39 45.67 46.10 46.69 46.23 45.29 47.03 48.42 49.81 49.66 49.58 49.92 50.05 50.60 50.95 51.50 51.65 49.56 51.73 51.40 52.18 52.29 52.64 52.10 51.55 51.21
42.20 43.71 44.19 42.64 42.81 41.64 40.29 38.42 37.96 39.92 40.68 41.23 42.38 42.12 41.62 43.92 43.46 42.00 42.06 42.70 42.63 40.92 40.22 43.32 44.12 46.19 47.80 47.39 48.04 47.66 47.10 48.64 48.55 48.42 47.55 47.33 49.36 49.81 49.81 50.50 50.97 50.86 50.40 50.55 50.04 49.76 49.94 50.89 51.87 52.57 52.18 52.34 53.17 52.04
42.59 43.88 43.17 43.38 40.80 39.19 38.66 39.71 39.21 41.30 41.28 41.03 40.91 41.69 40.45 39.56 38.93 39.31 40.88 39.52 39.77 42.55 43.93 44.30 44.50 44.48 44.68 45.17 46.49 50.23 50.43 50.44 50.49 49.31 47.79 48.13 48.18 48.56 49.23 50.16 50.07 49.53 49.89 50.62 50.91 50.50 50.99 52.18 52.60 52.47 51.74 51.76 51.38 52.68
43.86 43.56 43.09 40.98 36.96 35.96 36.37 41.64 39.34 39.78 36.22 38.01 40.08 38.01 37.59 37.54 38.85 41.91 38.14 39.49 40.60 43.44 44.20 44.28 44.54 45.96 45.91 49.56 50.07 50.10 50.69 49.87 48.91 48.93 49.09 49.27 49.40 49.65 49.30 50.01 51.86 50.70 50.59 52.28 52.89 52.43 51.95 48.45 51.16 53.28 53.65 53.33 53.07 53.91
42.99 39.85 37.07 36.60 37.52 35.02 40.63 39.20 40.56 38.26 38.41 37.32 36.28 35.02 35.24 36.91 40.23 36.93 34.91 37.62 41.15 44.63 46.32 48.44 49.23 48.17 48.78 48.97 48.17 48.75 49.85 50.60 49.61 49.70 50.29 49.80 49.21 49.92 51.15 51.29 51.99 52.75 52.58 52.09 51.26 51.60 52.77 52.96 48.64 52.20 52.46 51.90 51.30 49.60
34.16 34.48 36.64 32.06 39.23 36.54 35.12 35.83 35.80 35.65 34.43 37.00 35.56 35.09 36.67 40.18 34.91 33.69 34.07 39.46 42.04 43.34 46.66 49.00 49.12 48.74 47.23 47.66 48.56 48.94 50.26 50.86 49.19 48.76 50.93 52.17 50.72 49.58 49.52 49.87 49.81 52.13 54.47 53.60 52.09 53.25 51.46 51.27 51.25 52.91 53.76 53.57 52.12 49.61
32.28 37.78 35.99 35.97 35.74 34.53 35.46 33.54 33.16 35.38 37.31 36.57 37.02 39.73 40.88 38.57 34.73 32.45 37.99 41.31 41.92 42.83 44.42 46.79 48.08 47.53 47.26 48.56 48.36 48.63 49.43 51.65 50.85 48.83 49.23 50.48 50.31 49.19 49.95 47.97 47.88 49.18 51.64 49.07 47.00 47.84 47.28 49.43 49.71 49.76 49.65 48.55 43.39 49.14
33.15 34.80 38.65 41.00 39.36 37.83 35.65 37.11 37.99 37.42 38.19 37.12 38.29 38.39 37.79 35.32 33.34 39.03 43.02 44.57 43.93 45.29 46.32 47.93 49.35 48.88 47.78 48.59 49.30 48.29 50.49 51.21 50.73 49.89 48.95 49.23 49.70 50.80 51.89 50.44 49.71 51.41 52.29 51.07 51.01 50.47 49.40 49.22 49.06 49.10 48.95 49.32 49.41 49.39
35.97 35.14 33.54 37.42 37.07 38.30 37.34 38.99 39.26 39.21 40.28 42.18 41.33 37.30 36.65 37.75 39.26 44.85 46.12 47.64 47.39 47.70 49.51 50.62 51.36 51.30 49.28 47.54 46.79 46.27 46.10 46.63 47.59 50.64 51.78 51.17 51.02 50.67 50.97 50.78 50.22 40.08 52.05 52.15 51.90 51.58 51.37 50.73 49.95 49.84 49.76 49.28 49.09 49.54
35.98 38.43 38.19 37.90 39.62 40.14 41.23 41.55 41.76 43.71 44.95 43.46 40.17 39.02 40.92 44.08 46.09 46.53 47.04 48.02 49.15 50.82 50.09 49.01 47.56 48.92 48.39 48.71 49.07 49.54 51.10 51.50 49.71 47.56 46.91 47.03 48.18 48.60 49.92 50.33 50.11 50.52 50.41 48.63 38.65 45.42 50.51 50.69 50.73 50.33 49.54 48.90 48.42 47.33
40.43 41.24 39.54 41.16 40.32 40.24 42.71 45.19 44.58 46.05 46.44 46.46 46.24 45.49 45.93 46.59 47.29 48.37 47.81 48.16 49.76 49.48 49.20 48.76 48.75 49.23 48.44 48.14 47.68 48.35 49.42 50.11 50.35 49.05 47.11 46.82 47.92 50.37 50.68 49.74 49.65 49.34 49.77 50.55 49.50 48.25 41.78 47.77 45.56 48.95 47.60 47.53 47.25 46.15
44.10 44.11 42.97 42.54 41.32 43.82 45.73 47.40 48.02 48.13 47.68 46.61 47.28 45.63 44.89 46.36 47.92 48.33 47.71 47.99 48.28 48.54 49.05 48.78 49.25 49.91 49.32 48.89 49.23 48.72 48.11 49.90 50.21 50.17 50.63 51.02 51.53 51.78 51.51 51.49 51.22 50.75 51.43 50.87 50.50 49.54 48.95 48.36 48.07 47.02 46.08 45.20 44.10 43.32
45.24 43.91 42.99 41.31 42.65 46.59 48.28 46.36 46.11 45.82 46.24 45.85 45.15 46.78 46.62 46.05 44.31 48.54 50.63 49.64 49.67 49.25 45.46 48.89 49.35 48.67 50.05 50.42 50.68 49.80 43.12 50.52 50.77 51.06 51.39 51.57 51.68 52.14 52.47 52.52 52.54 52.13 51.01 49.88 49.35 48.91 48.25 47.17 46.24 45.13 44.07 43.07 42.63 42.12
45.29 45.43 45.57 44.27 44.00 44.60 46.24 46.36 45.18 44.55 45.44 44.63 45.09 46.45 46.78 46.61 44.53 49.81 52.45 52.14 51.24 50.85 50.26 50.27 50.63 50.86 50.89 50.69 50.53 49.33 46.27 49.89 43.33 37.41 38.26 39.30 40.98 45.77 51.63 52.21 51.60 50.99 49.85 49.08 48.14 47.65 46.24 45.27 44.44 43.55 42.64 41.91 41.25 40.71
MSLP
1024.82 1024.85 1024.86 1024.86 1024.78 1024.69 1024.54 1024.29 1024.07 1023.76 1023.47 1023.08 1022.71 1022.48 1022.11 1021.82 1021.66 1021.58 1021.52 1021.57 1021.06 1020.08 1018.53 1018.02 1017.52 1016.86 1016.49 1016.15 1015.58 1015.64 1015.18 1014.62 1013.80 1012.87 1011.89 1010.89 1010.35 1009.82 1009.31 1008.91 1008.65 1008.18 1008.19 1007.99 1008.01 1007.64 1007.67 1008.23 1008.42 1008.84 1009.11 1008.72 1008.82 1009.09
1024.40 1024.51 1024.52 1024.52 1024.47 1024.43 1024.36 1024.16 1023.96 1023.72 1023.37 1022.99 1022.74 1022.53 1022.20 1021.98 1021.78 1021.74 1021.39 1021.60 1021.65 1020.92 1019.16 1018.69 1017.86 1017.43 1017.15 1016.65 1016.36 1016.27 1015.90 1015.25 1014.80 1014.00 1013.16 1012.34 1011.44 1010.86 1010.24 1009.29 1009.44 1009.20 1008.74 1008.07 1008.27 1007.85 1008.29 1008.81 1009.07 1009.54 1009.84 1009.71 1009.92 1010.20
1024.10 1024.12 1024.19 1024.12 1024.03 1024.14 1024.11 1023.93 1023.72 1023.50 1023.29 1023.04 1022.78 1022.44 1022.19 1021.99 1021.82 1021.61 1021.38 1021.61 1021.36 1020.58 1019.00 1018.11 1016.95 1016.76 1016.99 1016.95 1016.68 1016.48 1016.14 1015.77 1015.41 1015.29 1014.29 1013.41 1012.55 1012.17 1010.94 1010.31 1009.97 1009.61 1009.56 1009.06 1008.76 1008.55 1008.61 1008.99 1009.27 1009.59 1009.90 1010.05 1010.16 1010.60
1023.69 1023.80 1023.87 1023.87 1023.90 1023.85 1023.80 1023.67 1023.47 1023.25 1023.06 1022.84 1022.58 1022.31 1022.11 1021.89 1021.73 1021.50 1021.30 1021.53 1021.43 1020.83 1019.43 1017.01 1016.35 1016.13 1016.30 1016.39 1016.49 1016.56 1016.39 1016.26 1015.83 1015.48 1014.70 1013.98 1013.25 1013.17 1012.02 1011.63 1010.81 1010.04 1009.95 1009.36 1009.01 1008.84 1009.09 1009.00 1009.30 1009.72 1010.09 1010.35 1010.50 1010.86
1023.23 1023.36 1023.45 1023.46 1023.51 1023.51 1023.42 1023.34 1023.21 1023.03 1022.86 1022.64 1022.40 1022.15 1021.94 1021.69 1021.50 1021.30 1021.30 1021.15 1021.14 1021.10 1019.67 1017.48 1016.30 1015.94 1015.85 1016.02 1016.17 1016.40 1016.56 1016.47 1015.75 1015.24 1014.76 1014.25 1014.07 1013.73 1012.71 1012.21 1011.07 1010.81 1010.54 1010.03 1009.40 1009.59 1009.49 1009.33 1009.56 1009.92 1010.22 1010.46 1010.85 1011.12
1022.71 1022.88 1022.99 1023.02 1023.04 1023.10 1023.08 1023.01 1022.90 1022.73 1022.59 1022.37 1022.15 1021.89 1021.68 1021.47 1021.24 1021.16 1020.78 1020.82 1020.88 1020.93 1020.00 1017.93 1016.62 1015.98 1015.67 1015.60 1015.80 1016.18 1016.45 1016.48 1015.89 1015.12 1014.78 1014.52 1014.37 1014.22 1013.18 1012.10 1011.81 1011.58 1011.41 1011.06 1010.38 1010.35 1010.13 1010.16 1010.18 1010.17 1010.31 1010.53 1010.93 1011.27
1022.07 1022.31 1022.47 1022.59 1022.68 1022.72 1022.74 1022.66 1022.56 1022.38 1022.24 1022.01 1021.72 1021.45 1021.28 1021.21 1021.23 1021.02 1020.80 1020.50 1020.69 1020.73 1019.83 1018.10 1016.47 1015.68 1015.61 1015.53 1015.68 1015.96 1016.22 1015.74 1015.37 1014.80 1014.43 1014.13 1014.17 1014.16 1013.53 1012.61 1012.32 1012.09 1011.67 1011.22 1010.99 1010.71 1010.18 1010.18 1010.34 1010.40 1010.45 1010.90 1011.22 1011.44
1021.48 1021.74 1021.94 1022.11 1022.26 1022.34 1022.39 1022.31 1022.20 1021.99 1021.80 1021.52 1021.16 1020.75 1020.46 1020.66 1020.96 1020.63 1019.95 1020.38 1020.62 1020.24 1019.60 1018.34 1016.60 1015.63 1015.21 1014.84 1014.98 1015.45 1015.36 1015.40 1014.94 1014.15 1014.20 1013.66 1013.96 1013.83 1013.13 1012.81 1012.71 1012.37 1011.90 1011.10 1011.12 1010.80 1010.54 1010.47 1010.64 1010.74 1010.91 1011.10 1011.30 1011.65
1020.84 1021.17 1021.42 1021.62 1021.86 1022.00 1022.06 1021.98 1021.82 1021.60 1021.36 1021.05 1020.71 1020.37 1020.28 1020.41 1020.38 1020.34 1020.06 1019.76 1020.36 1020.37 1019.18 1018.46 1016.90 1015.51 1015.06 1014.86 1014.99 1015.20 1015.14 1014.66 1014.59 1013.68 1013.26 1013.33 1013.11 1012.97 1012.89 1013.14 1013.01 1012.90 1012.64 1012.09 1011.47 1010.75 1010.72 1010.62 1010.63 1010.85 1010.89 1011.04 1011.20 1011.73
1020.20 1020.62 1020.92 1021.20 1021.46 1021.66 1021.74 1021.66 1021.47 1021.20 1020.89 1020.55 1020.52 1020.33 1019.99 1020.19 1020.29 1019.94 1020.05 1019.99 1019.88 1019.45 1019.14 1018.10 1017.30 1015.73 1015.53 1014.79 1014.68 1014.82 1014.72 1014.05 1013.74 1013.13 1013.22 1012.77 1012.46 1012.96 1013.23 1013.37 1013.32 1013.11 1012.83 1012.42 1011.67 1010.67 1010.29 1010.35 1010.61 1010.77 1010.71 1010.92 1011.13 1011.60
1019.58 1020.04 1020.44 1020.81 1021.08 1021.32 1021.44 1021.41 1021.22 1020.89 1020.52 1020.44 1020.41 1020.25 1020.37 1020.24 1019.87 1019.47 1019.16 1019.11 1018.78 1018.44 1018.00 1017.21 1016.78 1015.94 1015.58 1014.92 1014.61 1014.88 1014.30 1014.13 1013.44 1013.15 1013.06 1012.64 1012.54 1013.02 1013.35 1013.41 1013.29 1013.08 1012.88 1012.41 1012.05 1011.62 1011.07 1010.78 1010.70 1010.47 1010.59 1011.00 1011.25 1011.64
1018.99 1019.53 1020.01 1020.40 1020.70 1021.00 1021.17 1021.23 1021.10 1020.99 1021.15 1021.21 1021.27 1020.93 1020.57 1019.82 1019.38 1018.96 1018.44 1018.14 1017.73 1017.08 1016.75 1016.38 1016.03 1016.10 1015.52 1015.51 1014.88 1014.89 1014.34 1014.22 1013.21 1013.33 1013.05 1012.61 1012.94 1013.34 1013.43 1013.25 1012.98 1012.70 1012.53 1012.22 1011.89 1011.36 1010.98 1010.66 1010.58 1010.40 1010.33 1010.76 1011.33 1011.80
1018.55 1019.17 1019.69 1020.10 1020.43 1020.72 1020.96 1021.06 1021.02 1020.96 1021.05 1021.06 1021.00 1020.34 1019.64 1019.48 1018.76 1018.06 1017.38 1017.08 1016.79 1016.44 1016.09 1015.92 1015.83 1015.71 1015.67 1015.42 1015.02 1014.88 1014.29 1013.54 1013.53 1012.93 1012.48 1012.73 1013.31 1013.45 1013.62 1013.34 1012.80 1012.47 1012.19 1011.75 1011.32 1010.95 1010.57 1010.28 1010.15 1010.02 1010.05 1010.54 1011.21 1011.83
1018.31 1018.95 1019.47 1019.87 1020.23 1020.55 1020.78 1020.88 1020.85 1020.86 1020.89 1020.49 1020.08 1019.69 1019.03 1018.39 1017.66 1017.05 1016.77 1016.66 1016.55 1016.37 1016.05 1015.95 1015.53 1015.57 1015.46 1015.13 1014.77 1014.40 1013.72 1013.72 1013.20 1013.20 1013.31 1013.65 1013.64 1013.68 1013.52 1013.17 1012.88 1012.31 1011.99 1011.47 1010.85 1010.54 1010.30 1009.94 1009.64 1009.83 1010.02 1010.41 1010.85 1011.46
1018.25 1018.86 1019.36 1019.82 1020.12 1020.42 1020.63 1020.71 1020.72 1020.80 1020.49 1019.96 1019.54 1018.76 1018.11 1017.51 1017.28 1016.87 1016.72 1016.55 1016.42 1016.27 1015.93 1015.65 1015.61 1015.59 1015.15 1014.99 1014.75 1014.40 1013.95 1013.85 1014.55 1014.65 1014.50 1014.23 1014.04 1013.94 1013.59 1013.23 1012.80 1012.28 1011.55 1011.06 1010.81 1010.39 1009.89 1009.57 1009.83 1010.19 1010.35 1010.68 1011.20 1011.85
1018.33 1018.98 1019.38 1019.69 1019.99 1020.29 1020.50 1020.65 1020.75 1020.74 1020.31 1019.73 1019.25 1018.25 1017.70 1017.42 1016.99 1016.78 1016.68 1016.46 1016.41 1016.14 1016.09 1015.88 1015.55 1015.31 1015.01 1014.97 1014.67 1014.18 1014.24 1014.53 1014.76 1014.73 1014.40 1014.40 1014.12 1013.74 1013.40 1013.04 1012.59 1011.91 1011.35 1010.98 1010.61 1009.98 1010.06 1010.33 1010.57 1010.83 1011.00 1011.37 1011.91 1012.31
1018.54 1018.86 1019.13 1019.56 1019.92 1020.24 1020.46 1020.60 1020.49 1020.17 1019.68 1019.16 1018.43 1018.10 1017.76 1017.47 1017.20 1017.08 1016.94 1016.80 1016.71 1016.11 1016.06 1016.01 1015.77 1015.55 1015.33 1014.97 1014.49 1014.36 1014.65 1014.96 1014.74 1014.50 1014.42 1014.14 1013.81 1013.33 1012.91 1012.54 1012.10 1011.69 1011.34 1011.09 1011.02 1010.87 1010.97 1011.27 1011.40 1011.78 1012.02 1012.46 1012.84 1013.22
1018.87 1019.00 1019.14 1019.56 1019.94 1020.29 1020.42 1020.39 1020.10 1019.66 1019.07 1018.51 1018.19 1018.10 1017.81 1017.66 1017.44 1017.27 1017.23 1017.19 1016.89 1016.73 1016.65 1016.52 1016.49 1015.82 1015.27 1014.82 1014.45 1014.84 1015.00 1014.95 1014.72 1014.47 1014.24 1013.68 1013.12 1012.62 1012.37 1012.31 1012.18 1011.94 1011.87 1011.72 1011.58 1011.68 1011.95 1012.21 1012.52 1013.01 1013.36 1013.62 1013.80 1014.29
1019.04 1019.03 1019.31 1019.71 1019.81 1019.86 1019.85 1020.06 1019.91 1019.08 1018.62 1018.38 1018.19 1018.20 1017.98 1017.74 1017.68 1017.61 1017.43 1017.38 1017.39 1017.30 1017.20 1016.98 1016.48 1015.85 1015.37 1015.19 1015.05 1014.98 1014.97 1014.82 1014.62 1014.32 1013.97 1013.59 1013.09 1012.89 1012.90 1012.74 1012.66 1012.59 1012.53 1012.50 1012.41 1012.49 1012.77 1012.99 1013.50 1013.91 1014.16 1014.51 1014.69 1015.23
1019.32 1019.47 1019.62 1019.73 1019.82 1019.63 1019.51 1019.56 1019.67 1019.02 1018.47 1018.53 1018.31 1018.17 1018.09 1017.86 1017.78 1017.62 1017.59 1017.59 1017.55 1017.26 1017.08 1016.78 1016.22 1015.90 1015.80 1015.67 1015.81 1015.51 1015.14 1014.81 1014.56 1014.22 1013.94 1013.76 1013.71 1013.54 1013.40 1013.36 1013.29 1013.29 1013.38 1013.46 1013.47 1013.50 1013.41 1013.96 1014.21 1014.24 1014.79 1015.18 1015.36 1015.90
1019.50 1019.61 1019.65 1019.77 1019.66 1019.49 1019.30 1019.19 1019.07 1018.98 1018.73 1018.56 1018.65 1018.46 1018.15 1018.05 1018.05 1018.09 1018.06 1018.10 1017.71 1017.29 1017.00 1016.69 1016.34 1016.15 1016.01 1015.83 1015.58 1015.25 1014.75 1014.28 1014.03 1014.11 1014.17 1014.01 1014.08 1014.04 1014.09 1013.87 1013.91 1013.95 1014.00 1014.16 1014.26 1014.65 1014.76 1014.95 1015.35 1015.63 1015.77 1015.99 1016.39 1016.95
1019.52 1019.58 1019.57 1019.57 1019.33 1019.36 1019.31 1019.33 1019.09 1019.16 1018.84 1018.77 1018.63 1018.57 1018.45 1018.39 1018.63 1018.74 1018.80 1018.35 1017.95 1017.47 1017.16 1016.81 1016.38 1016.18 1015.92 1015.54 1015.16 1014.77 1014.61 1014.48 1014.48 1014.48 1014.52 1014.55 1014.68 1014.70 1014.78 1014.82 1014.70 1014.77 1014.99 1015.14 1015.28 1015.50 1015.81 1016.06 1016.22 1016.48 1016.72 1017.19 1017.47 1017.82
1019.43 1019.43 1019.24 1019.21 1019.17 1019.18 1019.51 1019.30 1019.00 1019.04 1018.83 1018.88 1018.84 1018.79 1018.89 1019.04 1019.12 1019.06 1018.79 1018.48 1018.00 1017.41 1016.98 1016.60 1016.13 1015.80 1015.75 1015.34 1015.13 1015.08 1014.95 1014.92 1015.03 1015.12 1015.16 1015.24 1015.40 1015.52 1015.53 1015.62 1015.51 1015.50 1015.66 1015.96 1015.96 1016.21 1016.74 1017.00 1017.15 1017.35 1017.65 1017.89 1018.07 1018.23
1019.41 1019.37 1019.28 1019.29 1019.30 1019.26 1019.10 1019.03 1019.13 1019.11 1019.08 1019.01 1018.98 1019.10 1019.27 1019.30 1019.26 1019.09 1018.85 1018.44 1017.79 1017.02 1016.34 1016.05 1015.92 1015.82 1015.80 1015.66 1015.63 1015.65 1015.65 1015.56 1015.66 1015.86 1016.03 1016.05 1016.18 1016.38 1016.39 1016.42 1016.43 1016.45 1016.40 1016.62 1016.89 1017.20 1017.41 1017.60 1017.78 1017.92 1018.10 1018.31 1018.59 1018.83
1019.79 1020.00 1019.80 1019.57 1019.41 1019.38 1019.40 1019.37 1019.29 1019.14 1018.99 1018.84 1018.92 1019.10 1019.15 1019.05 1019.04 1019.03 1018.93 1018.47 1017.87 1017.29 1016.77 1016.58 1016.35 1016.30 1016.26 1016.36 1016.37 1016.46 1016.49 1016.34 1016.50 1016.68 1017.05 1016.85 1016.83 1016.96 1017.08 1017.18 1017.31 1017.29 1016.97 1017.03 1017.34 1017.43 1017.87 1018.04 1018.14 1018.16 1018.18 1018.33 1018.63 1018.94
1019.69 1019.76 1019.80 1019.68 1019.77 1019.68 1019.53 1019.35 1019.16 1018.96 1018.66 1018.67 1018.80 1018.81 1018.74 1018.71 1018.93 1019.12 1018.82 1018.42 1018.22 1017.94 1017.58 1017.26 1017.02 1017.01 1017.06 1017.09 1017.16 1017.21 1017.35 1017.07 1016.96 1017.36 1017.75 1017.56 1017.42 1017.28 1017.26 1017.55 1017.77 1018.06 1017.95 1017.92 1017.95 1018.07 1018.33 1018.26 1018.40 1018.60 1018.90 1019.25 1019.39 1019.42
1019.88 1019.79 1019.70 1019.70 1019.55 1019.41 1019.30 1019.09 1018.88 1018.49 1018.20 1018.33 1018.40 1018.23 1018.22 1018.54 1018.91 1018.76 1018.71 1018.58 1018.35 1018.20 1018.10 1017.75 1017.52 1017.39 1017.57 1017.66 1017.63 1017.77 1017.61 1017.48 1017.56 1017.99 1018.21 1018.12 1018.10 1018.04 1017.96 1018.01 1018.29 1018.58 1018.42 1018.30 1018.22 1018.36 1018.52 1018.73 1018.92 1019.12 1019.33 1019.60 1019.80 1019.86
1019.70 1019.62 1019.50 1019.41 1019.19 1019.05 1018.63 1018.24 1017.86 1017.76 1017.77 1017.93 1017.91 1017.65 1017.55 1017.62 1018.18 1018.22 1018.43 1018.41 1018.31 1018.24 1018.06 1017.97 1017.88 1017.71 1017.82 1018.03 1018.08 1018.05 1018.18 1018.25 1018.24 1018.08 1018.08 1018.32 1018.49 1018.54 1018.60 1018.70 1018.80 1018.82 1018.74 1018.76 1018.81 1018.87 1018.91 1019.03 1019.22 1019.46 1019.72 1020.03 1020.37 1020.61
1019.37 1019.21 1019.04 1018.66 1018.32 1018.10 1017.71 1017.29 1017.06 1017.12 1017.33 1017.10 1017.00 1017.12 1017.42 1017.56 1017.90 1017.96 1018.13 1018.15 1018.19 1018.01 1017.88 1017.90 1018.14 1018.10 1018.21 1018.33 1018.34 1018.23 1018.04 1017.94 1017.94 1018.03 1018.07 1018.21 1018.42 1018.85 1018.98 1018.92 1018.88 1018.94 1019.09 1019.35 1019.53 1019.43 1019.50 1019.58 1019.78 1020.03 1020.40 1020.81 1021.22 1021.65
1018.45 1018.28 1017.95 1017.47 1017.29 1017.13 1017.03 1016.72 1016.42 1016.79 1016.79 1016.68 1016.73 1017.00 1017.27 1017.67 1017.99 1018.17 1018.05 1018.03 1017.85 1017.87 1018.05 1018.12 1018.23 1017.97 1018.04 1018.07 1018.28 1018.47 1018.60 1018.55 1018.44 1018.36 1018.35 1018.49 1018.68 1018.94 1019.02 1019.07 1019.21 1019.39 1019.61 1019.79 1020.14 1020.63 1020.70 1020.64 1020.88 1020.99 1021.24 1021.50 1021.74 1022.11
1017.51 1016.94 1016.70 1016.46 1016.60 1016.78 1016.70 1016.44 1016.02 1016.18 1016.26 1016.51 1016.60 1016.78 1017.28 1017.64 1017.86 1018.12 1018.14 1018.18 1018.11 1018.11 1018.08 1018.12 1018.25 1018.39 1018.31 1018.34 1018.38 1018.42 1018.63 1019.05 1019.20 1019.27 1019.28 1019.28 1019.33 1019.37 1019.41 1019.52 1019.63 1019.79 1019.95 1020.15 1020.36 1020.59 1020.77 1020.96 1021.23 1021.54 1021.86 1022.15 1022.53 1022.70
1017.16 1016.97 1016.70 1016.48 1016.65 1016.75 1016.42 1016.54 1016.56 1016.64 1016.79 1016.79 1016.99 1017.05 1017.23 1017.29 1017.54 1017.75 1018.15 1018.12 1017.88 1017.75 1018.16 1018.01 1017.99 1018.34 1018.60 1018.73 1018.88 1019.04 1019.18 1019.43 1019.79 1019.96 1020.07 1020.12 1020.16 1020.06 1019.88 1019.92 1020.04 1020.29 1020.48 1020.68 1020.88 1021.11 1021.37 1021.56 1021.85 1022.17 1022.51 1022.81 1023.06 1023.31
1017.39 1017.22 1017.06 1016.91 1016.83 1016.76 1016.80 1016.69 1016.86 1017.00 1017.09 1017.18 1017.39 1017.41 1017.48 1017.46 1017.54 1017.78 1018.01 1018.07 1018.02 1017.99 1018.10 1018.29 1018.48 1018.75 1019.03 1019.10 1019.22 1019.45 1019.56 1019.83 1020.56 1020.98 1020.95 1020.89 1020.78 1020.49 1020.18 1020.34 1020.58 1020.90 1021.10 1021.27 1021.47 1021.72 1021.93 1022.18 1022.42 1022.71 1022.97 1023.24 1023.50 1023.73
Wind_Speed
10 10 9 9 8 8 9 9 11 13 11 12 11 12 13 12 13 5 2 4 3 2 5 4 3 3 2 1 2 3 4 2 2 4 3 2 3 1 3 2 3 9 9 6 4 7 11 3 3 5 4 3 2 2
8 8 10 11 9 8 8 8 9 12 12 11 11 12 12 12 11 3 1 2 2 4 4 3 6 9 7 5 2 0 3 1 2 3 2 2 2 2 2 5 2 4 3 3 6 3 2 1 1 1 4 6 2 3
7 8 6 10 8 7 7 7 9 11 10 12 11 12 11 11 10 7 3 2 2 2 4 4 3 2 7 15 7 3 2 2 2 1 2 1 3 2 2 1 3 2 2 2 4 4 3 2 3 3 2 5 3 4
8 8 8 8 7 8 7 8 8 11 9 12 12 12 12 11 10 8 3 1 1 1 4 1 3 3 1 5 14 13 3 1 1 1 1 2 2 2 1 3 4 3 2 2 3 4 4 7 5 2 1 2 1 5
9 9 9 10 9 10 8 8 8 10 12 12 13 13 12 11 11 4 3 3 3 3 4 6 11 1 4 4 8 11 11 4 2 2 1 2 1 3 1 3 3 2 4 3 2 7 5 3 2 0 1 2 4 6
11 10 10 11 7 9 7 8 9 10 12 14 14 14 13 11 9 2 2 3 5 3 2 3 4 3 3 3 6 7 7 5 3 2 1 2 1 2 3 3 2 3 5 5 4 7 5 5 2 2 2 1 3 4
13 12 10 8 7 7 8 8 9 11 13 15 15 15 14 9 2 3 3 3 6 3 2 4 4 1 2 3 3 3 6 3 4 2 3 2 2 2 2 3 5 9 10 8 5 2 1 2 3 2 3 4 4 5
14 13 12 10 8 7 8 8 9 11 14 16 17 18 13 5 5 4 1 10 4 2 2 3 4 3 3 1 3 2 4 3 4 2 2 3 3 3 5 4 9 11 12 6 7 5 4 4 1 4 5 6 5 6
15 14 12 11 9 7 7 8 9 12 14 17 15 3 3 2 2 1 5 6 4 3 2 2 3 1 4 2 1 3 2 4 2 5 4 5 4 5 2 5 7 9 7 12 14 6 3 3 2 6 7 6 5 5
15 14 11 10 9 7 6 7 9 12 16 12 2 3 3 2 8 0 4 2 3 3 2 3 1 2 2 2 2 2 2 1 3 3 3 6 6 4 2 4 6 7 7 8 10 6 3 4 4 5 7 7 7 8
16 15 13 11 10 7 5 6 8 12 3 1 1 0 3 7 3 1 2 2 2 2 3 3 4 3 1 2 2 1 1 1 3 3 3 3 3 4 3 6 5 6 6 7 9 12 11 10 10 6 6 8 8 9
17 14 12 10 10 6 4 3 6 3 2 2 2 2 2 2 1 2 1 2 3 2 4 2 1 3 0 1 2 1 2 1 4 2 4 3 4 2 7 10 10 8 8 9 10 12 12 11 10 8 7 8 9 10
16 14 12 10 10 7 4 1 3 4 2 1 2 2 1 1 1 3 3 2 1 2 1 2 1 1 2 2 2 2 4 4 1 4 2 2 3 5 8 8 10 11 11 11 11 11 11 12 9 9 7 7 9 10
15 13 11 11 9 7 4 1 2 2 1 2 2 1 2 3 3 2 2 2 3 4 3 2 2 1 0 3 1 4 2 3 3 2 1 3 9 11 11 11 11 13 12 13 12 12 13 10 8 6 6 8 11 12
16 14 13 10 9 7 4 1 1 0 1 1 2 2 3 1 2 3 2 1 0 3 3 2 2 2 2 3 2 2 3 1 2 2 3 3 11 13 11 11 11 12 11 10 10 11 9 6 7 7 7 8 10 11
14 12 5 9 9 7 4 3 1 1 1 2 2 2 1 2 1 1 1 1 3 3 1 0 1 2 1 2 2 4 2 1 1 4 6 8 11 11 11 11 11 9 8 8 8 3 7 8 9 9 10 9 9 11
9 2 8 10 8 6 6 1 1 2 1 2 1 1 2 2 2 1 2 4 5 3 2 1 2 1 2 3 3 1 2 2 6 8 6 8 10 11 10 9 5 4 3 3 7 10 11 10 12 12 11 9 9 10
2 1 9 11 8 4 1 1 1 1 1 1 1 1 1 1 1 2 2 3 4 2 2 1 1 3 3 3 1 1 3 5 7 7 7 10 10 8 2 2 3 5 6 6 8 11 13 13 12 8 10 10 11 11
4 6 14 12 3 2 2 3 2 1 1 1 1 1 1 1 1 2 2 1 3 1 1 1 3 3 3 1 4 6 7 8 8 7 7 7 6 6 5 6 7 6 9 8 9 8 8 11 7 6 7 6 7 7
8 8 7 4 2 1 2 2 1 2 1 2 1 2 2 1 3 2 3 3 3 2 3 3 2 1 2 3 4 8 8 7 6 5 2 3 4 6 6 5 5 7 8 9 8 8 10 9 7 8 6 7 8 9
2 1 1 1 1 0 0 1 2 1 1 1 1 2 2 2 0 3 3 4 2 1 2 1 3 3 5 5 6 6 7 5 1 1 1 3 3 5 6 5 7 7 7 7 9 8 9 8 7 7 8 9 10 9
1 2 1 1 0 1 0 1 2 1 1 1 1 2 1 1 2 2 3 2 2 2 2 2 4 5 6 5 6 1 3 4 6 5 6 5 5 6 6 6 7 8 8 7 7 8 8 8 8 9 9 8 8 6
1 1 0 1 1 2 2 1 1 2 0 2 1 0 1 2 2 3 1 1 3 3 4 5 7 6 4 2 6 7 6 7 6 6 6 6 7 7 7 7 6 8 9 8 9 10 9 7 8 9 8 7 6 8
1 2 2 2 1 1 1 2 2 1 1 0 1 1 2 2 2 1 2 2 3 5 2 3 2 4 4 6 6 6 6 6 8 8 7 8 8 7 7 6 6 7 7 7 7 6 6 7 6 5 6 7 6 7
2 3 1 2 1 2 2 1 1 1 1 1 2 2 1 1 2 2 2 3 4 5 4 5 6 6 6 6 6 7 7 6 7 8 5 6 7 6 7 7 7 6 4 8 7 8 7 5 5 7 8 9 12 12
2 2 2 1 0 1 1 0 1 1 1 2 3 1 1 2 4 3 4 5 3 3 3 4 5 6 6 5 6 5 4 3 8 8 5 5 4 6 10 9 7 5 4 4 6 8 8 8 10 11 10 10 9 10
1 1 1 1 0 2 1 1 2 1 3 3 2 3 2 5 5 4 2 3 2 2 2 3 3 5 4 5 6 4 4 5 8 7 4 5 6 6 6 8 8 4 4 7 8 9 9 9 8 8 8 7 7 6
2 1 1 1 1 2 0 1 1 3 2 2 1 1 2 3 2 1 1 1 1 2 3 4 5 5 6 5 4 4 5 5 6 8 9 9 7 7 7 6 5 4 5 5 5 5 5 6 6 6 6 6 6 6
1 2 1 0 1 2 1 2 2 3 3 2 1 2 3 3 2 2 2 2 3 3 4 5 5 5 6 5 5 4 4 5 10 13 12 8 7 5 3 4 4 4 5 7 12 7 6 6 6 7 8 7 7 8
1 3 2 2 2 3 3 1 2 3 2 1 2 3 3 3 3 2 2 3 4 4 4 4 3 4 6 7 7 6 4 4 4 5 6 6 5 3 2 3 4 4 4 5 7 9 8 10 9 8 7 7 6 7
2 2 4 6 6 6 6 2 2 3 4 4 4 5 3 2 3 3 3 2 3 4 4 4 3 2 2 3 2 4 5 4 4 4 3 4 4 4 4 3 3 3 4 5 4 5 5 6 6 7 7 8 8 6
3 7 9 13 9 5 4 3 3 3 3 3 3 3 3 3 4 3 2 2 2 3 3 3 4 4 3 3 3 4 4 5 5 5 6 5 5 5 5 5 5 5 6 6 6 6 7 7 6 6 7 7 6 6
3 3 5 6 5 4 4 3 4 3 4 3 3 2 2 2 3 2 1 2 1 1 2 3 3 4 4 4 5 5 4 5 7 8 8 8 8 6 5 5 5 5 7 6 7 7 7 8 6 6 6 6 6 5
Wind_Direction
287 285 293 293 306 318 328 331 333 335 341 341 355 358 354 3 5 358 4 11 344 303 277 225 244 218 184 228 272 42 235 160 250 232 250 213 255 93 257 151 190 190 193 199 193 223 236 64 146 227 9 332 315 259
271 277 282 282 278 298 315 323 329 320 334 336 348 350 350 353 355 22 349 30 339 245 303 302 274 268 254 291 313 11 342 294 23 278 233 273 223 262 286 195 150 210 289 222 231 201 75 125 327 284 279 284 255 231
259 273 292 316 262 286 303 311 317 314 333 329 334 338 342 346 344 343 315 321 264 290 271 264 217 159 219 232 243 261 213 299 190 329 330 331 265 272 242 145 268 181 191 244 223 163 243 262 250 248 263 284 294 216
247 262 277 286 278 279 284 296 309 312 324 323 326 330 333 336 334 333 299 112 300 291 296 344 340 294 184 194 210 223 322 38 19 255 324 322 310 333 322 334 288 14 191 172 272 241 253 248 252 301 301 313 180 162
242 257 268 285 267 285 267 284 296 306 316 317 320 323 325 329 328 322 262 227 234 332 319 302 307 307 259 197 200 205 212 268 343 336 329 346 324 295 248 273 247 328 17 277 23 352 333 41 15 275 310 27 111 153
239 251 262 283 257 283 269 282 294 299 305 313 315 317 316 320 330 294 217 168 195 203 287 309 358 276 333 33 165 170 184 210 257 281 277 266 233 277 302 277 53 81 352 307 302 332 304 350 62 53 1 303 137 143
234 242 250 254 262 265 278 280 292 300 304 309 311 309 305 301 269 255 7 30 166 205 278 302 309 67 298 151 117 126 175 183 222 216 225 234 192 222 263 262 10 323 318 319 321 275 173 50 26 113 98 112 127 115
230 235 240 243 247 260 275 283 293 302 307 312 311 306 288 236 230 263 216 210 165 265 272 308 286 289 7 110 136 162 150 202 199 235 192 226 157 223 244 265 327 332 320 322 5 302 316 322 199 115 122 133 131 130
223 229 242 228 232 247 270 285 297 307 313 313 317 103 126 157 186 41 50 112 181 298 317 272 287 79 349 69 107 145 191 196 111 223 213 187 188 222 239 327 334 335 323 309 316 300 253 268 175 163 157 163 162 160
218 219 221 218 223 234 265 288 307 317 316 311 233 235 170 115 322 269 210 201 199 186 215 256 277 275 306 356 106 240 201 237 218 192 142 218 219 122 81 342 310 311 312 315 314 283 324 308 286 189 183 179 180 175
211 211 210 218 215 219 257 293 325 332 324 36 323 208 350 314 205 220 193 213 137 235 209 239 240 297 127 308 1 0 354 283 257 118 232 197 200 135 359 325 324 303 300 297 283 281 280 277 282 269 201 191 183 173
201 200 202 212 196 201 236 297 357 30 27 315 314 288 272 199 134 246 215 165 216 259 177 233 256 220 257 290 270 147 281 229 251 147 223 199 151 102 343 335 329 323 307 293 279 276 271 266 255 250 226 199 188 173
186 185 186 188 180 191 212 270 360 350 99 157 215 202 243 108 137 215 184 168 298 333 30 343 277 268 188 232 238 235 239 237 297 229 209 104 122 350 335 326 321 314 300 292 281 275 275 274 244 221 211 197 179 172
171 173 175 175 178 189 199 223 358 54 229 230 191 141 238 179 234 209 165 125 232 228 304 308 273 273 82 224 229 239 236 261 250 258 103 20 340 331 327 322 310 308 300 294 291 284 277 264 219 186 191 188 176 165
162 167 166 172 182 188 192 203 29 49 261 215 204 172 208 284 262 283 314 286 85 303 282 236 212 284 207 247 240 302 248 209 30 337 292 304 314 313 314 311 307 303 302 301 292 279 270 198 156 136 142 152 155 158
152 141 163 178 188 185 170 93 95 194 206 235 229 230 210 265 353 64 45 94 12 336 220 226 353 262 198 318 256 229 268 168 198 237 298 304 296 296 295 294 295 293 305 299 283 198 124 126 119 113 120 122 130 145
114 129 171 175 168 162 145 140 184 214 282 230 164 238 301 289 289 2 360 7 334 298 28 348 271 331 306 250 244 283 151 219 295 301 297 277 279 283 280 289 308 318 353 76 116 103 101 101 102 96 89 81 94 112
72 184 180 153 132 131 141 208 242 246 251 263 10 51 43 24 122 69 17 6 350 11 307 335 311 239 238 246 259 61 301 290 293 307 296 301 297 281 297 85 35 56 72 81 92 99 96 93 89 85 89 93 94 91
126 117 127 142 160 169 175 164 240 276 49 359 55 15 308 63 52 303 300 305 328 266 267 225 240 230 235 266 310 321 314 311 307 306 302 311 7 64 66 60 69 74 74 64 77 82 85 84 92 108 97 100 97 99
112 119 146 147 189 187 159 141 241 269 28 42 9 18 332 327 332 332 0 2 335 239 205 220 242 255 259 303 304 289 290 284 282 293 315 18 44 62 53 61 67 82 83 82 75 74 81 78 65 74 87 95 100 93
100 100 90 167 156 118 308 150 159 6 31 64 9 327 301 285 28 6 338 351 271 295 263 255 267 279 299 290 281 277 280 288 21 72 45 85 51 63 65 61 71 73 76 76 79 71 71 78 81 83 87 87 89 86
106 167 176 204 79 126 184 95 1 65 271 71 345 344 302 340 19 4 320 278 270 273 256 281 287 300 299 294 296 3 24 53 66 68 63 71 69 63 58 56 70 73 68 71 78 79 77 77 81 86 90 90 88 95
133 207 166 24 223 55 83 217 161 20 68 4 321 49 36 6 335 308 266 271 272 252 258 271 276 259 244 61 62 54 48 75 74 70 70 73 67 61 60 52 64 83 81 74 87 91 91 82 77 101 105 100 100 100
349 20 28 33 20 26 302 72 46 24 328 48 57 61 3 313 314 19 345 285 269 302 313 68 65 77 64 55 57 58 52 64 76 67 59 78 75 62 62 62 65 70 84 90 84 82 82 78 76 95 105 101 84 92
38 355 17 350 40 52 42 6 17 22 45 40 83 39 352 299 30 19 310 308 325 355 36 65 63 56 64 64 58 54 38 67 79 73 44 85 97 89 74 72 59 51 70 99 93 100 96 92 91 102 104 108 118 117
85 33 20 86 61 167 194 156 82 18 344 85 56 358 312 37 38 10 315 324 339 335 11 41 72 70 52 40 82 70 28 12 87 71 38 39 43 84 92 87 80 49 34 78 88 97 98 100 101 99 97 99 108 120
114 266 29 14 330 104 141 235 256 270 72 65 31 2 28 57 9 308 332 330 336 354 8 20 50 75 83 84 77 53 63 54 77 90 79 57 49 44 72 91 91 76 88 97 99 104 105 103 102 99 97 86 72 77
205 157 150 174 183 202 192 162 63 57 72 94 208 305 63 84 98 77 96 150 182 162 103 74 64 76 80 74 68 76 75 92 103 108 98 81 68 67 71 78 75 55 80 70 93 102 110 116 111 103 98 90 81 75
84 186 210 161 166 188 277 27 78 82 146 222 73 58 66 54 41 59 89 123 151 136 99 86 67 91 93 90 79 76 99 114 110 102 98 98 101 81 73 96 94 86 90 87 45 50 86 95 105 103 99 93 85 83
42 179 248 173 92 55 46 313 107 122 172 73 95 111 81 59 22 13 115 145 145 108 87 85 96 107 107 104 99 86 63 56 61 91 102 97 93 89 84 92 93 95 94 98 102 105 112 102 109 104 104 109 109 103
263 270 81 84 84 85 103 102 356 63 55 53 48 81 76 96 95 56 60 60 116 133 137 133 126 128 149 133 95 109 103 58 47 55 58 83 88 71 73 73 78 102 105 116 115 118 120 105 102 105 102 99 101 105
36 60 74 83 91 107 116 82 74 57 43 62 54 77 88 75 63 62 90 139 126 106 74 91 115 113 127 118 93 77 70 95 88 80 78 79 78 76 79 80 84 92 101 104 106 110 109 108 108 108 110 110 110 109
84 76 60 66 64 62 26 55 46 66 52 75 64 62 61 46 82 107 120 220 187 161 132 116 107 112 100 78 95 102 82 78 75 73 81 77 80 83 83 80 84 92 98 98 100 107 107 112 110 110 112 118 122 123